Location: Northwest Suburban Astronomers
(42.1100°N, 88.0300°W)
Time: 18:17:57
(UTC-06:00)

Daily predictions for brighter satellites

Satellite Brightness Start Highest point End
(mag) Time Altitude Azimuth Time Altitude Azimuth Time Altitude Azimuth
Cosmos 1980 Rocket 3.3 17:53:01 10° NNW 17:58:31 52° WSW 18:04:00 10° S
Cosmos 1975 Rocket 3.2 18:01:37 10° N 18:05:58 78° W 18:10:16 10° S
SKYMED 2 3.6 18:03:28 10° NNE 18:07:50 87° WNW 18:12:10 10° SSW
NOSS 2-2 (D) 4.2 18:05:02 10° SW 18:09:01 58° NW 18:13:42 10° NNE
Cosmos 1633 3.9 18:09:29 10° SE 18:12:16 21° E 18:15:05 10° NE
FREGAT/IRIS 3.0 18:14:51 10° SE 18:17:46 41° ENE 18:20:43 10° N
ASTRO F (AKARI) 4.5 18:15:03 10° NNE 18:18:42 83° ESE 18:22:08 10° SSW
ALOS 2.8 18:16:16 10° SE 18:20:32 37° ENE 18:24:49 10° N
Cosmos 1536 Rocket 3.7 18:20:27 10° N 18:24:49 52° E 18:29:11 10° SSE
Cosmos 2333 Rocket 4.1 18:23:38 10° NNE 18:25:14 11° NE 18:26:49 10° ENE
Meteor 1-18 Rocket 4.4 18:22:04 10° NNW 18:27:39 81° W 18:33:15 10° S
Cosmos 1818 3.6 18:22:39 10° SSW 18:27:59 61° ESE 18:33:23 10° NE
SL-16 R/B 2.4 18:26:03 10° NNW 18:31:45 78° WSW 18:37:23 10° SSE
Nadezhda 1 Rocket 4.2 18:27:27 10° NNW 18:33:32 72° W 18:39:33 10° S
SJ-6B 2.7 18:30:00 10° SSE 18:34:01 73° ENE 18:37:58 10° N
DNEPR-1 R/B 3.7 18:30:58 10° NW 18:35:13 74° WSW 18:39:28 10° SSE
FengYun 1-2 T 4.3 18:30:55 10° SE 18:36:13 54° ENE 18:41:34 10° N
TSX-5 3.5 18:33:32 10° S 18:36:35 44° ESE 18:39:05 14° NE
Resurs 01 Rocket 1.9 18:35:48 10° SE 18:39:57 43° ENE 18:44:08 10° N
Cosmos 1340 2.7 18:37:09 10° N 18:40:54 55° ENE 18:44:37 10° SSE
Cosmos 407 Rocket 3.6 18:36:20 10° SSW 18:41:34 81° WNW 18:46:55 10° NNE
Meteor 1-19 Rocket 4.4 18:36:32 10° N 18:42:04 50° ENE 18:47:37 10° SSE
Cosmos 1238 Rocket 2.4 18:39:29 10° N 18:42:23 40° E 18:45:11 10° SSE
Gbstr 26 Del rocket 3.8 18:39:46 10° SSW 18:42:56 25° SE 18:43:57 22° ESE
Cosmos 676 Rocket 3.9 18:38:33 10° S 18:43:42 74° ESE 18:48:55 10° NNE
DELTA 2 R/B (1) 3.9 18:39:04 10° W 18:44:38 63° S 18:48:38 19° ESE
Cosmos 2181 Rocket 4.0 18:41:32 10° N 18:47:45 65° E 18:54:00 10° SSE
Cosmos 2322 Rocket 3.0 18:44:08 10° NNW 18:49:36 54° WSW 18:55:02 10° S
Tiangong 2 2.0 18:50:18 10° W 18:53:13 40° SSW 18:54:34 25° SSE
Cosmos 1300 Rocket 3.5 18:52:12 10° S 18:56:33 68° E 19:00:59 10° NNE
Meteor 1-13 Rocket 4.1 18:51:03 10° N 18:56:36 76° E 19:02:13 10° SSE
Genesis I 4.3 18:53:14 10° NNW 18:56:37 26° NE 18:56:54 26° NE
Cosmos 1536 3.1 18:55:12 10° SSE 18:58:57 40° E 19:02:42 10° NNE
Cosmos 2322 3.7 18:56:42 10° NNW 19:02:26 67° ENE 19:07:30 13° SE
Resurs 1-3 3.5 18:58:18 10° SSE 19:02:37 63° ENE 19:06:58 10° N
CZ-2D R/B 3.3 19:03:05 31° SE 19:04:31 49° ENE 19:08:13 10° N
FENGYUN 3A 3.7 19:00:30 10° SSE 19:05:54 85° WSW 19:11:22 10° NNW
Cosmos 1140 Rocket 3.3 19:01:36 10° S 19:06:41 72° ESE 19:11:50 10° NNE
Cosmos 2074 Rocket 4.2 19:01:10 10° SSE 19:07:05 47° E 19:13:04 10° NNE
Cosmos 2184 Rocket 4.2 19:01:50 10° SSE 19:07:48 46° E 19:13:44 10° NNE
Cosmos 1709 Rocket 4.2 19:01:39 10° SSW 19:07:53 75° W 19:14:04 10° N
Cosmos 1461 4.3 19:04:14 10° NW 19:07:58 37° WSW 19:11:46 10° S
Meteor 1-23 Rocket 4.4 19:02:47 10° N 19:08:27 49° ENE 19:12:58 15° SSE
SL-19 R/B 4.3 19:03:57 10° SSE 19:09:34 90° E 19:15:35 10° NNW
Cosmos 2208 Rocket 4.3 19:05:12 10° N 19:10:28 47° ENE 19:12:31 32° ESE
H-2A R/B 2.5 19:10:08 10° SSE 19:13:45 89° ENE 19:17:31 10° NNW
COSMOS 2428 3.0 19:09:57 10° NNW 19:15:25 46° ENE 19:16:58 37° E
Spot 2 Rocket 3.5 19:10:57 10° SSE 19:15:59 84° WSW 19:21:06 10° NNW
Cosmos 2237 4.2 19:10:21 10° NNW 19:16:01 58° ENE 19:18:33 32° SE
Meteor 2-4 Rocket 3.5 19:10:39 10° N 19:16:15 70° E 19:21:38 10° SSE
SAR-Lupe-1 4.2 19:16:53 52° NE 19:16:53 52° NE 19:19:58 10° N
Cosmos 614 Rocket 3.8 19:14:00 10° S 19:19:03 70° ESE 19:24:07 10° NNE
SAR-Lupe-4 3.4 19:20:40 72° SE 19:20:56 80° ENE 19:24:31 10° N
Helios 1A 2.8 19:21:30 53° SE 19:22:15 66° ENE 19:26:23 10° N
Cosmos 2237 Rocket 3.7 19:20:28 10° N 19:23:53 20° NE 19:23:53 20° NE
Cosmos 1850 Rocket 3.9 19:20:15 10° S 19:25:29 67° ESE 19:30:48 10° NNE
Okean 1 Rocket 3.2 19:23:00 10° SSW 19:27:29 74° W 19:31:59 10° N
USA 229 DEB 4.0 19:23:22 10° NNW 19:30:17 51° NE 19:32:15 41° E
USA 229 4.0 19:23:28 10° NNW 19:30:23 50° NE 19:32:19 41° E
Meteor 1-11 Rocket 4.1 19:26:24 10° SSW 19:32:08 68° W 19:38:03 10° N
Envisat 3.5 19:33:05 41° NE 19:33:05 41° NE 19:37:04 10° N
GEOS 3 Rocket 4.2 19:28:16 11° NNE 19:33:09 56° NW 19:38:18 10° SW
Cosmos 2285 Rocket 4.1 19:27:03 10° NNW 19:33:22 53° ENE 19:34:37 46° ESE
Cosmos 2219 3.1 19:33:30 10° SSW 19:39:11 68° ESE 19:41:02 43° NE
Cosmos 2360 Rocket 2.9 19:36:17 10° NNW 19:41:46 52° WSW 19:47:02 11° S
Helios 1B rocket 3.4 19:44:10 37° SSW 19:44:10 37° SSW 19:46:42 10° SSW
Cosmos 2219 Rocket 2.7 19:39:39 10° NNW 19:44:08 41° NE 19:44:08 41° NE
Okean 1-7 Rocket 4.1 19:41:16 10° NNW 19:45:45 60° W 19:48:12 26° SSW
Cosmos 1025 Rocket 3.4 19:51:22 10° NNW 19:55:30 61° W 19:55:30 61° W
SL-16 R/B 4.3 19:52:51 10° N 19:54:14 14° NNE 19:54:14 14° NNE
Meteor 2-13 Rocket 4.2 19:56:09 10° S 20:02:12 81° E 20:08:18 10° N
NOSS 3-1 (C) 4.4 19:56:39 10° NNW 20:03:40 42° NE 20:03:46 42° NE
Cosmos 2333 Rocket 3.0 20:05:07 10° NNW 20:09:02 41° N 20:09:02 41° N
BREEZE-M DEB (TANK) 3.7 20:09:46 10° WNW 20:12:05 45° WSW 20:12:05 45° WSW
Resurs 01 Rocket 4.3 20:13:39 10° SW 20:16:38 18° W 20:19:37 10° NW
NOSS 0 Rocket 4.4 20:14:37 10° NNW 20:19:14 51° N 20:19:14 51° N
Cosmos 2237 Rocket 4.2 21:03:39 10° NNW 21:05:44 23° NNW 21:05:44 23° NNW
